Prescott, AZ

7:48 PM MST on November 16, 2019 (GMT -0700)
Love

Weather History for KPRC - June, 2019

Change the Weather History Date:

Friday, June 7, 2019

  Actual Average Record
Temperature  
Mean Temperature 70 °F 68 °F  
Max Temperature 82 °F 84 °F 97 °F (2013)
Min Temperature 58 °F 52 °F 38 °F (1993)
Degree Days  
Heating Degree Days 0    
Month to date heating degree days 2  
Since 1 July heating degree days 4330  
Cooling Degree Days 5    
Month to date cooling degree days 19  
Year to date cooling degree days 20  
Growing Degree Days 20 (Base 50)    
Moisture  
Dew Point 37 °F    
Average Humidity 30    
Maximum Humidity 49    
Minimum Humidity 18    
Precipitation  
Precipitation 0.00 in 0.01 in 1.85 in (1972)
Month to date precipitation 0.11 0.06  
Year to date precipitation 6.79 4.60  
Sea Level Pressure  
Sea Level Pressure 29.79 in    
Wind  
Wind Speed 9 mph ()    
Max Wind Speed 23 mph    
Max Gust Speed 29 mph    
Visibility 10.0 miles    
Events      
T = Trace of Precipitation, MM = Missing Value Source: Averaged Metar Reports

Daily Weather History Graph

Daily Weather History Graph

Search for Another Location

Airport or City:

Astronomy

Jun. 07, 2019 Rise Set
Actual Time 5:16 AM MST 7:40 PM MST
Civil Twilight 4:47 AM MST 8:10 PM MST
Nautical Twilight 4:11 AM MST 8:46 PM MST
Astronomical Twilight 3:31 AM MST 9:25 PM MST
Moon 9:35 AM MST (6/7) 11:50 PM MST (6/7)
Length of Visible Light 15h 22m
Length of Day
14h 24m
Waxing Crescent, 23% of the Moon is Illuminated
Jun 7
Waxing Crescent
Jun 9
First Quarter
Jun 17
Full
Jun 25
Last Quarter
Jul 2
New

Hourly Weather History & Observations

Time (MST) Temp. Dew Point Humidity Pressure Visibility Wind Dir Wind Speed Gust Speed Precip Events Conditions
12:53 AM 66.0 °F 37.0 °F 34% 29.80 in 10.0 mi SSW 10.4 mph - N/A   Clear
1:53 AM 64.0 °F 37.9 °F 38% 29.79 in 10.0 mi SSW 10.4 mph - N/A   Clear
2:53 AM 59.0 °F 39.9 °F 49% 29.80 in 10.0 mi South 8.1 mph - N/A   Clear
3:53 AM 59.0 °F 39.0 °F 48% 29.81 in 10.0 mi SSW 6.9 mph - N/A   Clear
4:53 AM 59.0 °F 37.9 °F 46% 29.81 in 10.0 mi SSW 9.2 mph - N/A   Clear
5:53 AM 60.1 °F 39.0 °F 46% 29.83 in 10.0 mi SSE 8.1 mph - N/A   Partly Cloudy
6:53 AM 66.0 °F 41.0 °F 40% 29.82 in 10.0 mi South 4.6 mph - N/A   Scattered Clouds
7:53 AM 72.0 °F 45.0 °F 38% 29.81 in 10.0 mi SE 4.6 mph - N/A   Clear
8:53 AM 73.9 °F 46.0 °F 37% 29.83 in 10.0 mi SSW 9.2 mph - N/A   Scattered Clouds
9:53 AM 77.0 °F 45.0 °F 32% 29.82 in 10.0 mi SW 9.2 mph - N/A   Clear
10:53 AM 78.1 °F 44.1 °F 30% 29.81 in 10.0 mi SSW 12.7 mph - N/A   Clear
11:53 AM 81.0 °F 37.9 °F 21% 29.79 in 10.0 mi SW 16.1 mph 23.0 mph N/A   Clear
12:53 PM 82.0 °F 36.0 °F 19% 29.78 in 10.0 mi SW 20.7 mph 25.3 mph N/A   Scattered Clouds
1:53 PM 81.0 °F 34.0 °F 18% 29.78 in 10.0 mi SSW 18.4 mph 27.6 mph N/A   Scattered Clouds
2:53 PM 81.0 °F 35.1 °F 19% 29.78 in 10.0 mi South 11.5 mph 21.9 mph N/A   Scattered Clouds
3:53 PM 81.0 °F 33.1 °F 18% 29.77 in 10.0 mi South 12.7 mph 23.0 mph N/A   Scattered Clouds
4:53 PM 79.0 °F 36.0 °F 21% 29.77 in 10.0 mi South 15.0 mph - N/A   Clear
5:53 PM 78.1 °F 36.0 °F 22% 29.76 in 10.0 mi SSW 16.1 mph - N/A   Clear
6:53 PM 75.9 °F 36.0 °F 23% 29.76 in 10.0 mi SSW 9.2 mph 18.4 mph N/A   Clear
7:53 PM 73.0 °F 30.9 °F 21% 29.76 in 10.0 mi SW 9.2 mph - N/A   Clear
8:53 PM 66.9 °F 32.0 °F 27% 29.78 in 10.0 mi SSW 5.8 mph - N/A   Clear
9:53 PM 62.1 °F 32.0 °F 32% 29.81 in 10.0 mi SSW 6.9 mph - N/A   Clear
10:53 PM 64.0 °F 27.0 °F 25% 29.79 in 10.0 mi SSW 10.4 mph - N/A   Clear
11:53 PM 62.1 °F 27.0 °F 26% 29.78 in 10.0 mi SSW 8.1 mph - N/A   Clear